EHI
0 0 1 2 2 1 0 0 0 0 0 0 0 0 2 4 4 2 2 10 24 28 24 24 26 24 20 16 10 6 5 7 9 7 5 2 2 4 7 7 5 4 6 6 7 7 5 4 2
0 1 2 2 1 0 0 0 0 0 0 0 0 2 4 5 3 3 4 12 22 25 22 24 28 28 24 19 15 10 7 8 10 10 8 5 3 4 5 6 6 5 5 6 6 7 6 5 4
0 1 2 2 1 0 0 0 1 0 0 0 1 4 6 5 4 5 7 13 21 24 24 27 31 31 26 22 20 16 11 10 11 12 11 8 5 4 4 5 7 7 6 6 7 6 6 6 6
0 1 1 1 0 0 0 0 0 0 0 0 2 6 8 7 6 7 9 13 19 25 27 29 31 31 26 23 22 20 16 12 12 12 11 9 6 4 4 5 6 7 7 8 8 7 5 4 4
0 0 0 0 0 0 0 0 0 0 0 1 4 9 9 8 8 7 7 10 16 24 28 28 29 29 26 23 23 23 20 16 13 12 10 9 7 5 4 5 7 7 7 7 8 7 5 3 3
0 0 0 0 0 0 0 0 0 0 0 1 5 11 11 10 9 6 5 8 14 22 26 26 26 26 24 22 23 24 23 19 16 13 10 8 6 4 3 4 5 6 6 7 6 6 5 4 4
0 0 0 0 0 0 0 0 0 0 0 1 6 11 14 14 11 7 6 8 13 19 22 21 21 22 21 21 21 23 22 21 19 16 12 9 5 3 2 2 2 3 5 7 6 4 4 4 5
0 0 0 0 0 0 0 0 0 1 1 3 7 11 16 18 13 10 10 11 13 18 20 18 16 17 17 18 21 22 22 24 23 19 14 9 6 4 3 1 1 2 5 6 5 4 3 3 4
0 0 0 0 0 0 0 0 1 2 3 5 8 11 15 16 12 11 15 16 16 18 19 17 14 12 11 14 18 20 19 21 20 16 13 9 6 5 4 4 4 5 6 6 6 5 3 3 3
0 0 0 0 0 0 0 1 1 3 4 5 7 11 14 12 10 13 18 20 19 18 18 17 14 11 8 11 16 16 16 15 12 10 10 8 6 5 5 6 8 8 7 7 7 6 4 3 3
0 0 0 0 0 0 1 2 3 3 4 5 8 13 15 13 12 15 20 22 19 18 18 17 16 14 12 14 16 17 18 15 10 7 9 9 8 8 8 9 10 8 7 7 8 7 5 4 5
0 0 0 0 0 1 2 3 4 5 7 8 11 17 19 16 15 17 21 23 21 19 18 19 20 19 19 21 21 21 21 19 14 11 11 11 10 11 12 11 10 8 8 9 10 10 8 7 7
0 0 0 0 0 2 3 3 5 8 10 10 14 19 20 18 17 19 23 25 24 21 20 23 25 25 25 25 23 22 22 20 18 16 15 14 13 13 13 13 12 10 9 10 11 11 9 8 8
0 0 0 0 0 1 3 4 6 9 10 10 13 17 19 20 20 23 26 28 27 25 25 27 29 28 28 25 22 21 21 20 18 19 18 17 16 15 15 15 15 12 10 9 10 10 10 9 8
0 0 0 0 0 1 3 5 8 10 11 11 12 14 18 22 23 24 27 29 30 30 30 29 27 27 27 23 19 18 19 19 19 20 20 18 17 18 17 17 16 12 9 10 10 10 11 10 9
0 0 0 0 0 1 3 7 11 12 13 13 14 15 19 24 25 25 25 26 28 31 31 28 24 24 25 22 18 16 17 18 19 20 20 19 18 18 18 17 14 11 10 10 11 11 12 10 8
0 0 0 0 0 1 4 9 12 13 12 13 16 19 22 26 27 26 24 23 26 29 31 28 25 23 23 22 20 18 18 20 20 20 20 19 16 15 15 14 13 11 10 10 10 11 11 8 5
0 0 0 0 0 1 4 9 13 12 10 11 16 20 24 27 29 29 26 23 25 28 30 29 25 24 23 22 21 20 20 22 22 20 18 15 11 11 10 9 9 9 8 9 9 9 9 6 3
0 0 0 0 1 2 4 9 13 11 9 11 15 19 22 26 29 29 26 23 24 27 28 26 23 23 23 23 22 21 20 20 19 16 13 9 8 9 8 6 4 6 7 9 9 8 6 4 2
0 0 1 1 2 3 5 8 11 11 10 12 15 17 19 23 27 28 25 22 23 26 26 25 24 24 25 25 24 22 20 17 15 12 9 6 5 6 6 4 3 4 7 9 9 7 5 3 2
0 0 1 2 2 3 4 5 8 11 11 12 14 16 17 21 26 27 25 23 23 24 25 26 28 28 27 27 24 21 18 15 12 10 7 4 3 3 3 3 3 3 5 6 6 5 4 3 3
0 0 0 1 2 2 2 2 5 10 12 12 13 15 16 20 25 27 26 24 23 23 23 26 30 29 27 24 20 17 15 14 12 8 5 3 2 2 1 1 1 2 3 4 4 5 5 5 4
0 0 0 0 0 0 0 2 5 9 10 10 11 12 14 18 24 26 26 25 24 22 21 23 28 27 23 20 19 18 17 16 13 7 3 3 2 1 0 0 0 1 2 2 2 4 5 5 3
0 0 0 0 0 0 0 2 6 9 9 8 8 9 12 17 22 24 25 25 24 22 20 20 24 23 19 17 19 20 19 17 12 7 4 3 1 0 0 0 0 0 1 1 1 2 3 3 2
0 0 0 0 0 0 0 3 7 9 8 7 7 8 12 15 20 22 24 26 25 23 21 20 21 21 19 17 18 19 18 15 12 8 5 4 2 1 1 1 1 1 0 0 0 1 2 2 3
0 0 0 0 0 0 1 3 6 7 6 6 7 9 12 14 18 21 25 27 27 26 23 20 20 20 18 16 17 17 16 13 10 7 5 4 3 3 3 2 2 1 1 0 0 0 1 2 2
0 0 0 0 0 0 1 3 4 4 4 6 7 10 13 15 16 20 25 27 27 27 25 22 21 19 16 14 14 14 14 11 8 6 4 4 3 3 2 1 1 1 1 1 1 1 1 2 2
0 0 0 0 0 0 0 2 3 3 4 6 8 11 14 16 17 20 24 26 27 27 26 23 21 18 15 12 11 10 10 8 6 4 3 3 2 1 1 0 0 0 0 0 1 2 2 3 3
0 0 0 0 0 0 0 2 5 5 5 8 10 12 15 18 18 21 25 27 28 27 23 21 19 17 14 11 9 8 6 4 2 2 2 1 1 0 0 0 0 0 0 0 0 1 2 2 1
0 0 0 0 0 1 1 3 7 8 8 9 11 12 15 18 20 22 26 29 29 26 21 18 17 16 13 11 9 7 5 2 1 1 1 0 0 0 0 0 0 0 0 0 0 0 1 1 0
Wind_Speed
8 11 10 8 8 6 3 1 5 6 7 8 8 7 9 11 9 8 6 10 15 16 14 13 12 11 11 10 9 8 8 7 7 7 6 6 6 6 6 6 5 6 5 5 5 5 4 3 4
9 12 10 8 7 3 2 3 6 7 7 6 6 8 10 12 10 10 8 11 15 15 13 12 13 11 10 9 9 7 7 7 6 6 6 5 5 5 5 5 5 4 5 5 4 4 4 3 3
12 15 8 7 5 2 2 3 6 6 6 5 6 9 9 8 9 8 9 12 15 15 14 13 13 11 10 10 9 8 7 6 6 6 5 5 5 5 4 4 4 4 3 4 4 4 3 3 4
9 9 8 7 4 1 2 2 5 4 5 5 7 9 9 8 8 10 11 12 14 16 15 14 13 12 10 9 9 8 7 7 6 6 5 5 4 4 4 3 3 3 3 3 3 3 3 4 4
10 8 10 7 4 2 2 3 4 3 4 6 9 10 10 10 12 12 9 9 13 15 14 14 13 12 11 10 10 9 8 7 6 5 5 4 4 3 3 3 3 3 3 3 3 3 4 5 5
8 8 8 7 4 2 3 3 3 3 5 7 10 11 9 10 11 9 9 8 12 15 15 13 14 13 11 11 10 9 8 7 6 5 4 4 4 3 3 3 3 3 3 3 3 4 5 5 6
10 10 10 8 4 1 2 2 2 4 5 5 7 10 8 10 9 9 8 9 11 14 14 12 12 11 11 11 10 9 8 7 6 5 5 4 4 4 4 3 3 3 3 4 4 5 6 6 7
10 10 11 7 5 1 4 1 3 4 5 5 4 7 10 12 10 9 8 8 10 12 11 10 10 9 9 9 10 9 8 7 6 6 5 4 5 6 6 5 5 5 4 5 5 6 7 7 8
13 10 9 7 5 1 4 2 4 4 4 7 9 9 12 14 12 9 8 8 8 10 9 7 7 7 7 8 8 8 8 7 6 5 4 3 3 3 5 5 6 7 6 7 7 7 8 9 10
9 8 8 6 7 3 2 2 2 3 4 7 10 11 12 12 10 8 8 8 7 8 7 6 6 5 4 4 5 4 4 5 3 2 2 2 1 2 2 5 7 7 8 8 9 9 9 8 6
10 10 7 6 5 3 0 1 1 2 2 6 9 12 11 10 9 8 8 8 8 7 5 6 5 4 3 3 3 1 2 2 2 2 1 1 1 1 0 2 4 5 7 5 5 6 5 5 3
11 10 8 6 4 4 2 2 1 2 4 7 10 10 10 9 8 7 7 8 7 7 5 5 4 4 4 3 1 1 1 1 1 2 1 0 1 1 0 0 1 1 1 2 2 2 3 4 4
10 10 8 7 6 4 5 2 1 5 7 9 10 10 9 7 7 7 7 6 6 6 5 5 4 4 3 2 0 1 1 1 1 1 1 1 1 1 1 1 1 2 1 2 2 2 2 2 3
9 9 9 9 7 7 6 3 4 5 7 8 9 9 9 8 8 7 7 4 4 5 5 4 3 4 2 1 0 0 1 1 1 1 1 0 0 1 2 2 1 2 1 1 2 2 2 2 2
10 10 11 11 9 8 7 7 6 7 6 6 8 8 8 8 8 7 7 5 5 4 4 3 3 4 2 1 1 0 0 1 1 0 0 1 0 1 2 2 1 2 2 2 2 2 2 2 3
11 11 12 11 9 8 9 6 7 7 6 6 6 8 8 7 7 7 7 5 5 5 4 2 1 3 2 1 1 1 1 0 0 0 0 0 1 2 2 2 1 2 2 2 2 1 2 2 2
10 11 12 9 8 8 8 5 9 8 7 6 6 7 9 8 7 7 7 6 5 5 3 2 1 2 1 1 1 1 0 0 0 0 1 1 1 2 2 2 1 2 2 2 3 1 2 2 3
8 8 8 7 8 8 7 6 8 8 8 8 7 8 8 8 8 7 6 6 5 5 4 2 2 2 1 0 0 0 0 0 0 0 1 1 1 2 2 2 2 2 2 1 1 2 3 3 3
10 8 7 7 7 6 7 6 7 9 9 8 8 8 8 8 8 7 6 6 5 5 5 3 2 2 1 1 0 0 0 1 1 1 1 0 1 2 3 2 2 2 1 2 2 2 3 3 2
10 11 10 8 9 5 5 5 5 7 8 7 7 7 7 7 7 7 6 5 5 5 4 4 3 2 1 1 1 1 0 1 0 1 0 1 1 2 2 1 2 2 1 2 2 2 2 3 2
11 11 10 8 7 6 7 7 6 6 5 6 6 5 6 8 8 7 5 5 5 4 4 3 3 2 1 1 0 0 0 0 1 1 0 1 2 1 2 2 2 2 2 1 2 2 3 3 3
10 10 8 8 8 8 9 7 6 6 5 5 6 6 6 6 8 7 6 5 4 4 4 4 3 3 1 1 0 1 0 1 1 1 1 2 2 2 1 1 1 2 2 2 3 2 2 3 3
10 9 10 10 10 10 9 6 3 7 7 7 7 7 6 6 7 7 6 5 4 4 4 4 4 3 2 1 1 0 1 1 1 1 1 2 2 1 1 1 1 2 2 2 2 3 3 2 2
10 11 12 10 9 9 7 5 2 4 6 7 7 7 5 5 5 6 6 5 4 4 4 4 4 3 2 1 1 1 0 1 1 1 1 1 1 1 1 1 1 1 1 2 2 3 3 2 2
9 8 7 7 6 7 4 3 1 4 7 6 6 6 6 4 4 5 5 5 5 5 4 4 4 3 2 2 1 1 0 1 1 1 1 1 1 1 2 2 1 1 1 2 2 2 2 2 2
7 8 6 8 8 6 3 2 4 3 7 8 7 7 6 4 4 5 5 5 5 5 4 4 3 3 2 2 1 1 0 1 1 1 1 1 1 1 1 1 1 2 2 2 1 2 2 1 2
7 7 7 8 11 10 2 3 6 6 6 6 6 7 6 5 5 5 5 6 6 5 4 4 3 3 2 2 2 2 1 0 0 0 1 1 1 1 1 1 1 2 2 1 1 1 1 1 1
9 8 4 6 7 7 4 1 3 5 5 5 5 6 5 4 5 5 5 6 6 5 5 4 4 3 2 2 2 2 1 0 0 1 1 1 2 2 1 1 2 2 2 1 1 1 1 1 1
6 8 7 6 6 5 5 1 4 4 4 4 5 6 5 4 5 5 6 6 6 5 5 5 4 3 3 2 2 2 1 1 1 1 2 2 1 1 1 1 2 2 1 1 2 2 1 1 1
8 8 7 6 6 5 5 1 4 5 5 5 5 5 5 4 4 6 6 6 6 5 5 5 4 3 3 3 3 2 1 1 1 1 1 1 1 1 2 1 1 2 2 1 2 2 2 2 2
Wind_Direction
246 244 235 242 242 240 277 309 77 68 67 62 51 57 54 45 54 86 105 101 106 113 117 116 109 110 110 111 113 111 111 113 115 117 118 122 121 121 124 127 132 136 141 145 148 148 146 152 165
258 253 241 244 256 259 15 12 70 76 77 82 77 77 71 63 73 96 105 107 113 115 119 119 116 114 113 114 115 114 116 116 117 120 125 129 126 123 127 133 139 145 150 154 157 160 164 164 175
260 258 259 247 244 268 69 32 80 81 88 97 82 62 65 72 83 103 113 118 117 115 116 118 120 118 117 118 119 119 116 114 110 117 127 134 135 134 137 144 150 153 160 169 174 181 187 195 199
256 244 238 256 273 210 146 78 81 89 90 98 94 77 71 68 94 108 118 125 121 119 118 122 124 122 122 121 121 121 119 115 114 122 131 135 139 142 146 155 165 171 176 186 194 200 205 210 214
246 256 251 258 261 235 140 120 105 103 99 89 88 93 89 84 99 109 117 122 120 119 120 127 128 128 129 128 126 123 122 123 124 126 130 135 138 145 160 171 180 192 205 212 210 206 212 224 225
256 255 265 268 260 216 128 109 127 120 101 92 98 96 97 109 112 118 123 127 120 119 121 130 135 136 137 136 135 132 130 130 130 132 135 145 155 165 179 192 206 207 211 223 226 227 224 230 235
262 277 277 279 289 233 106 109 93 94 80 76 105 110 120 121 122 129 131 122 115 118 124 138 142 144 145 143 143 144 144 145 146 147 152 163 179 189 193 200 208 210 215 226 235 238 239 236 237
265 279 284 282 277 232 105 131 89 83 86 85 81 121 132 131 135 132 126 119 120 119 124 135 139 146 154 154 156 156 157 156 160 163 170 185 198 198 201 196 195 211 221 229 235 240 242 241 242
259 267 280 292 292 74 123 137 94 89 109 88 71 86 125 136 140 140 132 123 114 115 122 128 131 143 155 156 149 160 163 163 170 172 180 202 214 204 202 197 191 208 220 228 234 239 243 244 243
247 263 274 299 324 350 97 110 125 158 133 105 99 106 123 136 141 146 138 128 125 122 123 127 124 129 135 126 136 160 162 154 175 147 149 214 250 245 216 176 195 213 222 227 232 239 244 243 240
243 255 268 279 297 304 322 150 188 213 154 121 126 133 137 145 148 149 139 132 127 121 115 108 113 111 103 103 134 143 145 140 173 137 151 240 257 264 181 169 188 214 218 226 226 230 235 238 240
250 261 265 274 295 295 281 228 206 93 91 117 119 133 141 147 146 142 128 123 125 127 120 109 107 103 87 71 107 146 132 138 161 129 138 285 307 333 24 351 321 264 238 237 242 237 241 243 245
253 255 265 265 258 269 270 244 131 100 104 115 125 139 140 145 139 125 112 115 122 118 116 104 102 99 93 84 306 110 151 150 150 130 136 307 296 329 347 314 293 282 282 268 257 262 276 283 269
273 272 268 262 254 245 245 219 194 136 119 127 137 144 147 146 135 124 114 110 108 109 105 106 120 115 109 115 77 229 193 158 155 153 148 290 304 354 317 286 268 277 272 282 289 281 283 280 280
268 267 260 251 238 235 239 226 185 132 129 141 145 145 138 136 132 133 131 126 112 109 107 109 135 118 122 137 230 180 215 172 151 147 192 206 283 286 279 275 278 292 289 287 281 284 279 262 259
262 257 254 246 237 224 228 235 147 139 145 157 151 145 141 142 146 137 133 129 123 116 115 121 117 122 140 146 256 244 224 217 143 175 211 35 307 283 279 276 277 295 296 290 276 267 282 285 282
242 247 253 243 230 233 234 232 145 142 153 162 152 147 145 149 148 137 136 132 130 128 123 133 119 129 144 182 240 263 252 240 231 194 86 41 340 307 295 292 284 273 277 279 288 326 303 290 290
245 246 252 240 222 234 237 217 166 165 171 175 160 154 152 155 149 141 139 140 136 131 136 139 134 120 151 132 258 350 357 322 262 99 75 40 312 315 306 276 281 275 271 283 293 288 282 275 275
270 273 267 274 253 237 236 224 181 168 181 175 163 160 158 155 146 139 142 142 138 134 138 142 135 137 136 124 267 226 220 267 263 130 99 2 318 318 294 285 281 272 265 275 275 277 278 281 279
265 277 272 265 254 245 255 244 187 175 185 177 170 161 160 152 138 132 138 144 147 147 154 160 155 154 160 169 227 226 272 259 185 77 112 322 317 314 304 311 290 296 278 277 282 283 280 286 285
255 259 260 263 274 260 250 244 213 181 180 169 158 156 161 152 147 146 148 151 155 158 163 157 149 146 151 211 155 17 280 297 32 5 5 310 300 312 322 317 312 301 285 276 277 273 284 281 283
258 263 263 264 266 258 237 246 210 171 170 177 161 164 164 158 152 152 155 161 164 160 152 142 146 138 142 136 84 319 324 357 349 342 350 323 310 308 302 296 303 299 299 301 290 304 295 285 284
268 276 278 270 267 271 265 263 209 161 176 179 180 171 166 161 155 156 162 162 166 160 150 144 136 140 137 149 157 280 6 356 355 354 352 327 320 313 326 293 304 306 304 310 309 307 296 278 279
273 281 280 271 270 269 280 284 235 179 171 170 168 159 151 151 149 154 155 154 155 147 142 141 137 138 142 144 132 120 355 312 314 332 336 328 327 327 349 325 350 318 308 304 304 301 298 302 300
265 273 282 275 264 264 255 263 177 147 146 148 141 137 134 152 147 146 155 158 155 143 139 131 129 145 156 148 135 131 268 254 260 309 306 323 321 330 355 344 330 315 300 288 300 296 297 307 314
268 272 273 289 290 287 263 208 133 128 111 109 116 123 141 155 146 150 150 148 147 140 130 131 134 148 158 143 136 153 231 275 42 359 327 298 301 317 360 337 332 318 304 305 308 294 297 317 315
264 267 279 282 284 285 272 130 125 129 121 119 133 135 143 143 144 138 133 135 135 135 132 138 139 148 162 150 160 163 178 271 6 299 302 332 320 332 28 350 338 315 319 320 315 292 300 316 307
241 267 268 269 278 289 288 206 146 148 137 141 128 120 121 136 136 130 130 128 129 133 132 130 136 153 167 156 176 146 170 207 56 34 34 19 356 9 4 349 333 317 307 312 301 290 280 287 290
254 260 265 273 283 287 294 10 133 145 138 132 121 113 122 132 131 129 131 130 128 128 131 134 142 151 154 146 124 101 106 71 52 50 44 35 359 342 337 330 321 308 303 319 293 280 264 273 281
274 272 270 275 281 289 291 65 94 105 113 118 108 109 114 117 120 122 126 132 133 135 136 137 146 152 148 133 123 112 101 78 52 32 25 11 3 344 335 335 334 328 348 327 308 319 344 322 302